TimeCST,TemperatureF,Dew PointF,Humidity,Sea Level PressureIn,VisibilityMPH,Wind Direction,Wind SpeedMPH,Gust SpeedMPH,PrecipitationIn,Events,Conditions,WindDirDegrees,DateUTC
12:53 AM,12.9,6.1,74,30.14,10.0,South,4.6,-,N/A,,Clear,190,2014-02-27 06:53:00
1:53 AM,12.9,7.0,77,30.13,10.0,Calm,Calm,-,N/A,,Clear,0,2014-02-27 07:53:00
2:53 AM,14.0,7.0,74,30.12,10.0,Calm,Calm,-,N/A,,Clear,0,2014-02-27 08:53:00
3:53 AM,12.9,7.0,77,30.10,10.0,Calm,Calm,-,N/A,,Clear,0,2014-02-27 09:53:00
4:53 AM,12.9,7.0,77,30.11,10.0,Calm,Calm,-,N/A,,Clear,0,2014-02-27 10:53:00
5:53 AM,12.9,8.1,81,30.12,10.0,South,3.5,-,N/A,,Clear,190,2014-02-27 11:53:00
6:53 AM,14.0,8.1,77,30.12,10.0,Calm,Calm,-,N/A,,Clear,0,2014-02-27 12:53:00
7:53 AM,21.0,15.1,78,30.14,10.0,Calm,Calm,-,N/A,,Clear,0,2014-02-27 13:53:00
8:53 AM,32.0,16.0,52,30.14,10.0,Variable,3.5,-,N/A,,Clear,0,2014-02-27 14:53:00
9:53 AM,35.1,14.0,42,30.13,10.0,NW,6.9,-,N/A,,Clear,320,2014-02-27 15:53:00
10:53 AM,39.0,16.0,39,30.12,10.0,Variable,3.5,-,N/A,,Clear,0,2014-02-27 16:53:00
11:53 AM,42.1,17.1,37,30.10,10.0,ESE,3.5,-,N/A,,Clear,110,2014-02-27 17:53:00
12:53 PM,45.0,15.1,30,30.06,10.0,Calm,Calm,-,N/A,,Clear,0,2014-02-27 18:53:00
1:53 PM,46.9,12.0,24,30.02,10.0,SE,4.6,-,N/A,,Clear,140,2014-02-27 19:53:00
2:53 PM,50.0,12.9,23,29.98,10.0,Calm,Calm,-,N/A,,Clear,0,2014-02-27 20:53:00
3:53 PM,51.1,10.9,20,29.96,10.0,SSW,8.1,-,N/A,,Clear,210,2014-02-27 21:53:00
4:53 PM,48.9,15.1,26,29.95,10.0,South,12.7,-,N/A,,Clear,190,2014-02-27 22:53:00
5:53 PM,45.0,15.1,30,29.95,10.0,South,8.1,-,N/A,,Clear,190,2014-02-27 23:53:00
6:53 PM,41.0,15.1,35,29.96,10.0,South,4.6,-,N/A,,Clear,180,2014-02-28 00:53:00
7:53 PM,32.0,16.0,52,29.96,10.0,Calm,Calm,-,N/A,,Clear,0,2014-02-28 01:53:00
8:53 PM,28.0,17.1,63,29.96,10.0,Calm,Calm,-,N/A,,Clear,0,2014-02-28 02:53:00
9:53 PM,28.9,18.0,64,29.96,10.0,Calm,Calm,-,N/A,,Clear,0,2014-02-28 03:53:00
10:53 PM,26.1,17.1,69,29.94,10.0,Calm,Calm,-,N/A,,Clear,0,2014-02-28 04:53:00
11:53 PM,26.1,17.1,69,29.94,10.0,Calm,Calm,-,N/A,,Clear,0,2014-02-28 05:53:00